Location: Caltech
(34.1382°N, 118.1253°W)
Time: 05:15:48
(UTC-07:00)

Cosmos 1943 Rocket - Visible Passes

Search period start: 27 May 2016 00:00
Search period end: 06 June 2016 00:00
Orbit: 814 x 842 km, 71.0° (Epoch: 27 May)

Date Brightness Start Highest point End Pass type
(mag) Time Alt. Az. Time Alt. Az. Time Alt. Az.
27 May 4.3 21:42:31 10° NNE 21:44:25 12° NE 21:46:20 10° ENE visible
27 May 2.5 23:23:17 10° NNW 23:27:52 62° NNW 23:27:52 62° NNW visible
28 May 2.2 23:04:08 10° NNW 23:09:12 73° N 23:09:12 73° N visible
29 May 2.1 22:45:01 10° NNW 22:50:34 71° ENE 22:50:34 71° ENE visible
30 May 4.7 00:31:41 10° WNW 00:32:06 11° W 00:32:06 11° W visible
30 May 2.2 22:25:54 10° NNW 22:31:25 62° ENE 22:31:58 58° E visible
31 May 4.5 00:11:45 10° WNW 00:13:30 13° W 00:13:30 13° W visible
31 May 2.4 22:06:49 10° N 22:12:15 53° ENE 22:13:25 45° ESE visible
31 May 4.2 23:52:05 10° WNW 23:54:57 16° W 23:54:57 16° W visible
01 Jun 2.6 21:47:44 10° N 21:53:06 46° ENE 21:54:53 35° ESE visible
01 Jun 4.0 23:32:33 10° NW 23:36:24 19° W 23:36:25 19° W visible
02 Jun 2.8 21:28:41 10° N 21:33:55 40° ENE 21:36:24 26° ESE visible
02 Jun 3.8 23:13:06 10° NW 23:17:20 22° W 23:17:56 22° WSW visible
03 Jun 3.0 21:09:39 10° N 21:14:44 35° ENE 21:17:58 19° ESE visible
03 Jun 3.6 22:53:42 10° NW 22:58:15 26° WSW 22:59:30 24° WSW visible
04 Jun 3.2 20:50:39 10° N 20:55:32 30° ENE 20:59:34 14° ESE visible
04 Jun 3.5 22:34:22 10° NW 22:39:09 30° WSW 22:41:06 24° SW visible
05 Jun 3.4 20:31:40 10° N 20:36:20 27° ENE 20:41:01 10° ESE visible
05 Jun 3.4 22:15:04 10° NW 22:20:04 35° WSW 22:22:44 23° SSW visible
